Satellite-Ground Cal/Val Region Overpasses Predictions

Prediction of Satellite NPP Overpassing Cal/Val Region: PacNW

Region Location: (Latitude: 10.00, Longitude: 139.50) to (Latitude: 22.70, Longitude: 165.60).

Table of predicted overpasses for the next 14.0 days since TLE Epoch: 6/25/2012
Interval Starting Time Starting Location Ending Time Ending Location
1 06/26/2012 02:56:25 ( 10.05, 155.20) 06/26/2012 03:00:00 ( 22.68, 152.20)
2 06/26/2012 15:28:16 ( 22.69, 152.44) 06/26/2012 15:31:52 ( 10.01, 149.42)
3 06/27/2012 02:37:21 ( 10.04, 159.97) 06/27/2012 02:40:56 ( 22.66, 156.97)
4 06/27/2012 15:09:14 ( 22.65, 157.19) 06/27/2012 15:12:49 ( 10.03, 154.19)
5 06/28/2012 02:18:18 ( 10.02, 164.73) 06/28/2012 02:21:53 ( 22.64, 161.73)
6 06/28/2012 14:50:10 ( 22.66, 161.95) 06/28/2012 14:53:45 ( 10.04, 158.96)
7 06/29/2012 03:40:44 ( 10.02, 144.12) 06/29/2012 03:44:20 ( 22.70, 141.11)
8 06/29/2012 14:32:25 ( 18.11, 165.60) 06/29/2012 14:34:43 ( 10.00, 163.71)
9 06/29/2012 16:12:37 ( 22.67, 141.34) 06/29/2012 16:14:46 ( 15.10, 139.51)
10 06/30/2012 03:21:42 ( 10.06, 148.87) 06/30/2012 03:25:17 ( 22.68, 145.87)
11 06/30/2012 15:53:33 ( 22.69, 146.11) 06/30/2012 15:57:09 ( 10.01, 143.10)
12 07/01/2012 03:02:38 ( 10.04, 153.64) 07/01/2012 03:06:13 ( 22.67, 150.64)
13 07/01/2012 15:34:31 ( 22.65, 150.86) 07/01/2012 15:38:06 ( 10.03, 147.86)
14 07/02/2012 02:43:35 ( 10.02, 158.40) 07/02/2012 02:47:10 ( 22.65, 155.40)
15 07/02/2012 15:15:27 ( 22.66, 155.63) 07/02/2012 15:19:02 ( 10.05, 152.63)
16 07/03/2012 02:24:31 ( 10.01, 163.17) 07/03/2012 02:28:07 ( 22.69, 160.15)
17 07/03/2012 14:56:24 ( 22.68, 160.39) 07/03/2012 15:00:00 ( 10.01, 157.38)
18 07/04/2012 02:08:18 ( 19.97, 165.59) 07/04/2012 02:09:04 ( 22.67, 164.92)
19 07/04/2012 03:46:59 ( 10.06, 142.54) 07/04/2012 03:50:34 ( 22.68, 139.54)
20 07/04/2012 14:37:22 ( 22.64, 165.15) 07/04/2012 14:40:57 ( 10.03, 162.15)
21 07/04/2012 16:18:51 ( 22.69, 139.78) 07/04/2012 16:19:10 ( 21.58, 139.51)
22 07/05/2012 03:27:55 ( 10.04, 147.31) 07/05/2012 03:31:30 ( 22.66, 144.31)
23
